Weather History for Culdrose, United Kingdom

Change the Weather History Date:

Saturday, December 29, 2012

  Actual Average Record
Temperature  
Mean Temperature 46 °F -  
Max Temperature 49 °F 46 °F 55 °F (1998)
Min Temperature 42 °F 39 °F 24 °F (1996)
Degree Days  
Heating Degree Days 20    
Moisture  
Dew Point 44 °F    
Average Humidity 86    
Maximum Humidity 100    
Minimum Humidity 64    
Precipitation  
Precipitation 0.31 in - - ()
Sea Level Pressure  
Sea Level Pressure 29.60 in    
Wind  
Wind Speed 19 mph ()    
Max Wind Speed 30 mph    
Max Gust Speed 54 mph    
Visibility 3.7 miles    
Events Rain    
Averages and records for this station are not official NWS values.
T = Trace of Precipitation, MM = Missing Value Source: Averaged Metar Reports

Daily Weather History Graph

Daily Weather History Graph

Search for Another Location

Airport:

Trip Planner

Search our weather history database for the weather conditions in past years. The results will help you decide how hot, cold, wet, or windy it might be!

Date:

Astronomy

Dec. 29, 2012 Rise Set
Actual Time 8:19 AM GMT 4:26 PM GMT
Civil Twilight 7:41 AM GMT 5:05 PM GMT
Nautical Twilight 6:59 AM GMT 5:46 PM GMT
Astronomical Twilight 6:20 AM GMT 6:26 PM GMT
Moon 5:56 PM GMT (12/29) 8:36 AM GMT (12/29)
Length of Visible Light 9h 23m
Length of Day
8h 06m
Full, 99% of the Moon is Illuminated
Dec 29
Full
Jan 5
Last Quarter
Jan 11
New
Jan 18
First Quarter
Jan 27
Full

Hourly Weather History & Observations

Time (GMT) Temp. Windchill Dew Point Humidity Pressure Visibility Wind Dir Wind Speed Gust Speed Precip Events Conditions
12:50 AM 53.6 °F - 50.0 °F 88% 29.68 in 0.9 mi SSW 25.3 mph 46.0 mph N/A Rain Light Rain
1:50 AM 51.8 °F - 50.0 °F 94% 29.65 in 1.2 mi SSW 27.6 mph 48.3 mph N/A Rain Light Rain
2:50 AM 51 °F - 51 °F 98% 29.62 in 1 mi SSW 27.6 mph - - Rain Light Rain
2:50 AM 51.8 °F - 50.0 °F 94% 29.59 in 0.6 mi SSW 27.6 mph 49.5 mph N/A Rain Light Rain
3:50 AM 51.8 °F - 50.0 °F 94% 29.56 in 0.5 mi SSW 29.9 mph 50.6 mph N/A Rain Light Rain
4:50 AM 51.8 °F - 51.8 °F 100% 29.50 in 0.7 mi SSW 28.8 mph 54.1 mph N/A Rain Light Rain
5:50 AM 49 °F - 48 °F 94% 29.53 in 1 mi WSW 13.8 mph - - Rain Light Rain
5:50 AM 48.2 °F - 48.2 °F 100% 29.50 in 1.2 mi WSW 13.8 mph 29.9 mph N/A Rain Light Rain
6:50 AM 48.2 °F - 48.2 °F 100% 29.50 in 1.6 mi WSW 11.5 mph - N/A Rain Rain
7:50 AM 48.2 °F - 48.2 °F 100% 29.50 in 1.9 mi WSW 9.2 mph - N/A Rain Rain
8:50 AM 48 °F - 47 °F 96% 29.53 in 2 mi WSW 16.1 mph - - Rain Light Rain
8:50 AM 48.2 °F - 48.2 °F 100% 29.50 in 2.2 mi WSW 16.1 mph - N/A Rain Light Rain
9:50 AM 46.4 °F 39.8 °F 44.6 °F 93% 29.53 in 2.2 mi West 16.1 mph 29.9 mph N/A Rain Light Rain
10:50 AM 46.4 °F 41.1 °F 44.6 °F 93% 29.53 in 3.1 mi WSW 11.5 mph - N/A Rain Light Rain
11:33 AM 44.6 °F 35.1 °F 41.0 °F 87% 29.56 in 1.2 mi West 27.6 mph 40.3 mph N/A Rain Rain
11:50 AM 45 °F - 41 °F 82% 29.57 in 2 mi West 15.0 mph - - Rain Light Rain
11:50 AM 44.6 °F 37.8 °F 41.0 °F 87% 29.56 in 1.9 mi West 15.0 mph 33.4 mph N/A Rain Light Rain
12:50 PM 48.2 °F - 44.6 °F 87% 29.53 in 4.3 mi SW 17.3 mph - N/A   Haze
1:50 PM 50.0 °F - 44.6 °F 82% 29.56 in 4.3 mi West 16.1 mph 29.9 mph N/A   Haze
2:50 PM 48 °F - 41 °F 68% 29.60 in 4 mi West 13.8 mph - -   Mostly Cloudy
2:50 PM 48.2 °F - 41.0 °F 76% 29.56 in 4.3 mi West 13.8 mph 31.1 mph N/A   Mostly Cloudy
3:50 PM 46.4 °F 39.0 °F 41.0 °F 81% 29.59 in 3.1 mi West 19.6 mph 40.3 mph N/A Rain Light Rain
4:50 PM 46.4 °F 38.3 °F 41.0 °F 81% 29.62 in 4.3 mi West 23.0 mph 34.5 mph N/A   Haze
5:50 PM 46 °F - 39 °F 70% 29.65 in 11 mi West 19.6 mph - -   Mostly Cloudy
5:50 PM 46.4 °F 39.0 °F 39.2 °F 76% 29.62 in 6.2 mi West 19.6 mph 41.4 mph N/A   Scattered Clouds
6:50 PM 44.6 °F 36.1 °F 39.2 °F 81% 29.65 in 6.2 mi WSW 21.9 mph 39.1 mph N/A   Scattered Clouds
7:50 PM 42.8 °F 35.4 °F 39.2 °F 87% 29.68 in 6.2 mi WNW 15.0 mph 26.5 mph N/A   Scattered Clouds
8:50 PM 45 °F - 39 °F 71% 29.72 in 9 mi West 23.0 mph - -   Partly Cloudy
8:50 PM 44.6 °F 35.9 °F 39.2 °F 81% 29.71 in 6.2 mi West 23.0 mph 35.7 mph N/A   Scattered Clouds
9:50 PM 46.4 °F 38.3 °F 37.4 °F 71% 29.71 in 6.2 mi West 23.0 mph 40.3 mph N/A   Scattered Clouds
10:50 PM 44.6 °F 36.9 °F 37.4 °F 76% 29.74 in 6.2 mi West 18.4 mph 36.8 mph N/A   Scattered Clouds
11:50 PM 46 °F - 38 °F 64% 29.78 in 9 mi West 19.6 mph - -   Mostly Cloudy
11:50 PM 46.4 °F 39.0 °F 37.4 °F 71% 29.77 in 6.2 mi West 19.6 mph 36.8 mph N/A   Scattered Clouds